Погода в Виноградном

Россия / Республика Крым     45°17′35″N   35°50′45″E
темп.,
°C
ветер,
м/с
пор.,
м/с
влажн.,
%
обл.,
%
осадки,
мм/ч
давл.,
гПа
погр.,
м
25 января, вт
вт2500:00−2з6996100 0.9 1022345
03:00−3з5892100 1.2 1022280
06:00−4з3792100 0.0 1023158
09:00−3з4790100 0.0 1023221
12:00−2зсз3582100 0.0 1023525
15:00−1сз2392100 0.3 1023397
18:00−4зсз019898 0.2 102318
21:00−6ссз119758 0.3 102316
26 января, ср
ср2600:00−4сз249586 0.1 102380
03:00−5зсз249180 0.1 102275
06:00−5зсз358898 0.0 1021108
09:00−5зсз369047 0.0 1022110
12:00−2сз458051 0.0 1021541
15:00−2сз34806 0.0 1020499
18:00−6сз118850 0.0 102019
21:00−5юз2291100 0.0 102132
27 января, чт
чт2700:00−7зюз12935 0.0 102012
03:00−7ю119179 0.0 102015
06:00−5вюв229075 0.0 101929
09:00−3з019592 0.1 102042
12:000зсз458791 0.1 1020667
15:000зсз4684100 0.2 1020674
18:00−1зсз4783100 0.0 1020302
21:00−1зсз478361 0.1 1021281
28 января, пт
пт2800:00−5з23885 0.0 102032
03:00−4ююз338793 0.0 102048
06:00+1ююз598399 0.0 1019190
09:000ююз378182 0.0 1018112
12:00+3ююз489198 0.0 1018287
15:00+5юз71185100 0.1 1016406
18:00+4юз81382100 0.1 1016464
21:00+4юз81386100 0.6 1016605
29 января, сб
сб2900:00+4юз81390100 0.5 1015676
03:00+3з3794100 1.1 1016123
06:00+2зюз4888100 0.0 1016143
09:00+3зюз51283100 0.1 1017335
12:00+4з8137815 0.0 1019945
15:00+5з8126961 0.0 10201292
18:00+2з71170100 0.1 10211073
21:00+2з61077100 0.1 1023803